Hourly Data Report for October 27, 2013

All times are specified in Local Standard Time (LST). Add 1 hour to adjust for Daylight Saving Time where and when it is observed.

KITCHENER/WATERLOO
ONTARIO

43°27'39.000" N
80°22'43.000" W
321.60 m
6144239
71368
YKF

Download Data

Hourly Data (October 2013)
Hourly Data Report for October 27, 2013
Temp Definition
°C
Dew Point Temp Definition
°C
Rel Hum Definition
%
Wind Dir Definition
10's deg

Wind Spd Definition
km/h
Visibility Definition
km
Stn Press Definition
kPa
Hmdx Definition


Wind Chill Definition


Weather Definition


TIME
00:00 Legend Double Dagger 2.4 1.1 91 26 11 16.1 97.24     LegendNANA
01:00 Legend Double Dagger 2.6 1.1 90 27 15 16.1 97.31     LegendNANA
02:00 Legend Double Dagger 2.8 1.3 90 28 15 16.1 97.37     LegendNANA
03:00 Legend Double Dagger 2.8 1.5 91 26 18 16.1 97.38     LegendNANA
04:00 Legend Double Dagger 1.5 0.6 94 27 9 16.1 97.40     LegendNANA
05:00 Legend Double Dagger 2.0 0.8 92 26 11 16.1 97.44     LegendNANA
06:00 Legend Double Dagger 2.3 1.1 92 24 15 16.1 97.51     LegendNANA
07:00 Legend Double Dagger 2.1 0.9 92 25 13 16.1 97.53     LegendNANA
08:00 Legend Double Dagger 2.6 1.3 91 26 13 16.1 97.63     LegendNANA
09:00 Legend Double Dagger 2.8 1.7 92 25 13 16.1 97.67     LegendNANA
10:00 Legend Double Dagger 3.6 1.9 89 27 15 16.1 97.71     LegendNANA
11:00 Legend Double Dagger 5.4 2.0 79 28 26 16.1 97.73     LegendNANA
12:00 Legend Double Dagger 5.5 2.2 79 26 11 16.1 97.72     LegendNANA
13:00 Legend Double Dagger 5.8 1.9 76 25 13 16.1 97.69     LegendNANA
14:00 Legend Double Dagger 7.1 0.7 64 26 28 16.1 97.67     LegendNANA
15:00 Legend Double Dagger 6.1 -0.5 63 26 24 16.1 97.68     LegendNANA
16:00 Legend Double Dagger 5.8 -1.5 59 26 17 16.1 97.74     LegendNANA
17:00 Legend Double Dagger 5.5 -1.4 61 24 21 16.1 97.74     LegendNANA
18:00 Legend Double Dagger 4.7 -0.7 68 23 11 16.1 97.77     LegendNANA
19:00 Legend Double Dagger 4.3 -0.7 70 18 11 16.1 97.75     LegendNANA
20:00 Legend Double Dagger 4.0 -0.9 70 19 11 16.1 97.76     LegendNANA
21:00 Legend Double Dagger 2.9 -0.9 76 19 9 16.1 97.76     LegendNANA
22:00 Legend Double Dagger 1.4 -1.2 83 19 5 16.1 97.78     LegendNANA
23:00 Legend Double Dagger 2.4 -0.5 81 19 11 16.1 97.75     LegendNANA

Notes on Data Quality.

Legend

  • E = Estimated
  • M = Missing
  • NA = Not Available
  • ‡ = Partner data that is not subject to review by the National Climate Archives
Date modified: